| time (UTC) | temp F | wind direction | speed MPH | gust MPH | rain 1hr in | rain 24hr in | rain mn in | humidity % | barometer mb |
| 20260504042558 | 40 | 157 | 2.0 | 2.0 | 0.00 | 0.00 | 0.00 | 74 | 1009.3 |
| 20260504042055 | 39 | 157 | 0.0 | 0.0 | 0.00 | 0.00 | 0.00 | 75 | 1009.0 |
| 20260504041551 | 39 | 157 | 0.0 | 0.0 | 0.00 | 0.00 | 0.00 | 76 | 1008.9 |
| 20260504041048 | 39 | 157 | 0.0 | 0.0 | 0.00 | 0.00 | 0.00 | 76 | 1009.1 |
| 20260504040545 | 39 | 157 | 0.0 | 0.0 | 0.00 | 0.00 | 0.00 | 76 | 1009.0 |
| 20260504040041 | 39 | 157 | 1.0 | 1.0 | 0.00 | 0.00 | 0.00 | 76 | 1009.0 |
| 20260504035538 | 40 | 157 | 0.0 | 1.0 | 0.00 | 0.00 | 0.00 | 75 | 1008.9 |
| 20260504035034 | 40 | 157 | 0.0 | 0.0 | 0.00 | 0.00 | 0.00 | 75 | 1008.8 |
| 20260504034533 | 40 | 157 | 0.0 | 1.0 | 0.00 | 0.00 | 0.00 | 75 | 1009.0 |
| 20260504034029 | 40 | 157 | 0.0 | 1.0 | 0.00 | 0.00 | 0.00 | 76 | 1008.9 |
| 20260504033528 | 40 | 157 | 1.0 | 1.0 | 0.00 | 0.00 | 0.00 | 76 | 1008.9 |
| 20260504033024 | 40 | 157 | 0.0 | 0.0 | 0.00 | 0.00 | 0.00 | 75 | 1008.9 |
| 20260504032521 | 40 | 157 | 1.0 | 1.0 | 0.00 | 0.00 | 0.00 | 75 | 1008.9 |
| 20260504032018 | 40 | 157 | 0.0 | 1.0 | 0.00 | 0.00 | 0.00 | 74 | 1008.9 |
| 20260504031515 | 40 | 157 | 0.0 | 1.0 | 0.00 | 0.00 | 0.00 | 75 | 1009.0 |
| 20260504031011 | 41 | 157 | 0.0 | 0.0 | 0.00 | 0.00 | 0.00 | 74 | 1008.9 |
| 20260504030509 | 41 | 157 | 0.0 | 1.0 | 0.00 | 0.00 | 0.00 | 73 | 1008.8 |
| 20260504030004 | 41 | 157 | 0.0 | 0.0 | 0.00 | 0.00 | 0.00 | 74 | 1009.1 |
| 20260504025501 | 41 | 157 | 1.0 | 1.0 | 0.00 | 0.00 | 0.00 | 74 | 1009.0 |
| 20260504024958 | 41 | 157 | 0.0 | 0.0 | 0.00 | 0.00 | 0.00 | 73 | 1009.2 |
| 20260504024455 | 41 | 157 | 0.0 | 1.0 | 0.00 | 0.00 | 0.00 | 73 | 1008.9 |
| 20260504023953 | 41 | 157 | 1.0 | 1.0 | 0.00 | 0.00 | 0.00 | 72 | 1008.9 |
| 20260504023449 | 41 | 157 | 0.0 | 1.0 | 0.00 | 0.00 | 0.00 | 73 | 1009.1 |
| 20260504022944 | 41 | 157 | 0.0 | 0.0 | 0.00 | 0.00 | 0.00 | 71 | 1009.0 |
| 20260504022441 | 41 | 157 | 1.0 | 1.0 | 0.00 | 0.00 | 0.00 | 70 | 1009.1 |
| 20260504021938 | 42 | 157 | 0.0 | 1.0 | 0.00 | 0.00 | 0.00 | 69 | 1009.0 |
| 20260504021435 | 42 | 157 | 1.0 | 1.0 | 0.00 | 0.00 | 0.00 | 68 | 1009.2 |
| 20260504020932 | 42 | 157 | 1.0 | 1.0 | 0.00 | 0.00 | 0.00 | 68 | 1009.0 |
| 20260504020429 | 42 | 157 | 1.0 | 1.0 | 0.00 | 0.00 | 0.00 | 68 | 1009.2 |
| 20260504015925 | 42 | 157 | 0.0 | 1.0 | 0.00 | 0.00 | 0.00 | 67 | 1009.1 |
| 20260504015421 | 42 | 157 | 1.0 | 1.0 | 0.00 | 0.00 | 0.00 | 67 | 1009.2 |
| 20260504014917 | 42 | 157 | 0.0 | 0.0 | 0.00 | 0.00 | 0.00 | 69 | 1009.0 |
| 20260504014414 | 43 | 157 | 0.0 | 0.0 | 0.00 | 0.00 | 0.00 | 69 | 1009.0 |
| 20260504013911 | 42 | 187 | 1.0 | 1.0 | 0.00 | 0.00 | 0.00 | 67 | 1009.2 |
| 20260504013409 | 43 | 187 | 0.0 | 0.0 | 0.00 | 0.00 | 0.00 | 66 | 1009.1 |
| 20260504012905 | 43 | 187 | 0.0 | 1.0 | 0.00 | 0.00 | 0.00 | 65 | 1009.0 |
| 20260504012403 | 43 | 187 | 0.0 | 1.0 | 0.00 | 0.00 | 0.00 | 65 | 1008.9 |
| 20260504011900 | 43 | 187 | 0.0 | 1.0 | 0.00 | 0.00 | 0.00 | 65 | 1008.9 |
| 20260504011357 | 44 | 187 | 0.0 | 0.0 | 0.00 | 0.00 | 0.00 | 65 | 1008.7 |
| 20260504010853 | 44 | 187 | 1.0 | 1.0 | 0.00 | 0.00 | 0.00 | 64 | 1008.6 |
| 20260504010349 | 44 | 187 | 1.0 | 1.0 | 0.00 | 0.00 | 0.00 | 63 | 1008.9 |
| 20260504005845 | 44 | 187 | 0.0 | 0.0 | 0.00 | 0.00 | 0.00 | 63 | 1008.8 |
| 20260504005342 | 45 | 187 | 0.0 | 1.0 | 0.00 | 0.00 | 0.00 | 63 | 1008.6 |
| 20260504004839 | 45 | 187 | 1.0 | 1.0 | 0.00 | 0.00 | 0.00 | 64 | 1008.7 |
| 20260504004337 | 45 | 187 | 0.0 | 1.0 | 0.00 | 0.00 | 0.00 | 63 | 1008.9 |
| 20260504003833 | 46 | 187 | 0.0 | 1.0 | 0.00 | 0.00 | 0.00 | 61 | 1008.6 |
| 20260504003330 | 46 | 187 | 0.0 | 0.0 | 0.00 | 0.00 | 0.00 | 61 | 1008.5 |
| 20260504002827 | 46 | 187 | 0.0 | 0.0 | 0.00 | 0.00 | 0.00 | 59 | 1008.5 |
| 20260504002324 | 47 | 187 | 0.0 | 0.0 | 0.00 | 0.00 | 0.00 | 58 | 1008.4 |
| 20260504001822 | 47 | 187 | 0.0 | 0.0 | 0.00 | 0.00 | 0.00 | 57 | 1008.2 |
| 20260504001319 | 48 | 187 | 0.0 | 1.0 | 0.00 | 0.00 | 0.00 | 56 | 1008.4 |
| 20260504000815 | 48 | 187 | 0.0 | 0.0 | 0.00 | 0.00 | 0.00 | 55 | 1008.2 |
| 20260504000312 | 49 | 188 | 0.0 | 1.0 | 0.00 | 0.00 | 0.00 | 53 | 1008.2 |
| 20260503235810 | 49 | 189 | 0.0 | 1.0 | 0.00 | 0.00 | 0.00 | 51 | 1008.4 |
| 20260503235307 | 50 | 189 | 0.0 | 0.0 | 0.00 | 0.00 | 0.00 | 50 | 1008.2 |
| 20260503234805 | 51 | 190 | 0.0 | 0.0 | 0.00 | 0.00 | 0.00 | 50 | 1008.0 |
| 20260503234303 | 51 | 178 | 1.0 | 1.0 | 0.00 | 0.00 | 0.00 | 48 | 1008.2 |
| 20260503233800 | 52 | 194 | 1.0 | 1.0 | 0.00 | 0.00 | 0.00 | 47 | 1007.9 |
| 20260503233255 | 52 | 212 | 2.0 | 3.0 | 0.00 | 0.00 | 0.00 | 46 | 1008.0 |
| 20260503232753 | 52 | 198 | 1.0 | 1.0 | 0.00 | 0.00 | 0.00 | 46 | 1007.9 |
| 20260503232250 | 52 | 220 | 2.0 | 2.0 | 0.00 | 0.00 | 0.00 | 45 | 1008.1 |
| 20260503231748 | 52 | 50 | 3.0 | 4.0 | 0.00 | 0.00 | 0.00 | 44 | 1008.1 |
| 20260503231245 | 53 | 203 | 2.0 | 2.0 | 0.00 | 0.00 | 0.00 | 45 | 1007.8 |
| 20260503230740 | 53 | 217 | 3.0 | 3.0 | 0.00 | 0.00 | 0.00 | 44 | 1007.9 |
| 20260503230238 | 53 | 153 | 3.0 | 4.0 | 0.00 | 0.00 | 0.00 | 44 | 1008.0 |
| 20260503225736 | 53 | 192 | 1.0 | 2.0 | 0.00 | 0.00 | 0.00 | 43 | 1008.0 |
| 20260503225235 | 53 | 238 | 4.0 | 7.0 | 0.00 | 0.00 | 0.00 | 42 | 1007.8 |
| 20260503224732 | 54 | 257 | 3.0 | 4.0 | 0.00 | 0.00 | 0.00 | 42 | 1007.8 |
| 20260503224230 | 54 | 156 | 1.0 | 1.0 | 0.00 | 0.00 | 0.00 | 42 | 1007.9 |
| 20260503223728 | 54 | 83 | 4.0 | 6.0 | 0.00 | 0.00 | 0.00 | 40 | 1007.9 |
| 20260503223225 | 54 | 271 | 6.0 | 9.0 | 0.00 | 0.00 | 0.00 | 40 | 1007.6 |
| 20260503222721 | 54 | 260 | 3.0 | 4.0 | 0.00 | 0.00 | 0.00 | 41 | 1008.0 |
| 20260503222219 | 54 | 205 | 1.0 | 1.0 | 0.00 | 0.00 | 0.00 | 41 | 1007.8 |
| 20260503221718 | 54 | 260 | 5.0 | 7.0 | 0.00 | 0.00 | 0.00 | 38 | 1007.6 |
| 20260503221215 | 54 | 229 | 3.0 | 6.0 | 0.00 | 0.00 | 0.00 | 40 | 1007.6 |
| 20260503220711 | 54 | 24 | 1.0 | 1.0 | 0.00 | 0.00 | 0.00 | 39 | 1007.5 |
| 20260503220208 | 54 | 203 | 6.0 | 8.0 | 0.00 | 0.00 | 0.00 | 37 | 1007.6 |
| 20260503215705 | 55 | 199 | 1.0 | 2.0 | 0.00 | 0.00 | 0.00 | 38 | 1007.6 |
| 20260503215202 | 55 | 179 | 2.0 | 4.0 | 0.00 | 0.00 | 0.00 | 38 | 1007.3 |
| 20260503214700 | 55 | 228 | 6.0 | 8.0 | 0.00 | 0.00 | 0.00 | 36 | 1007.4 |
| 20260503214155 | 56 | 352 | 4.0 | 6.0 | 0.00 | 0.00 | 0.00 | 35 | 1007.4 |
| 20260503213649 | 57 | 261 | 7.0 | 9.0 | 0.00 | 0.00 | 0.00 | 36 | 1007.2 |
| 20260503213146 | 56 | 268 | 6.0 | 8.0 | 0.00 | 0.00 | 0.00 | 35 | 1007.4 |
| 20260503212643 | 55 | 248 | 3.0 | 4.0 | 0.00 | 0.00 | 0.00 | 35 | 1007.3 |
| 20260503212140 | 56 | 237 | 4.0 | 4.0 | 0.00 | 0.00 | 0.00 | 35 | 1007.2 |
| 20260503211638 | 56 | 203 | 2.0 | 3.0 | 0.00 | 0.00 | 0.00 | 37 | 1007.3 |
| 20260503211133 | 57 | 222 | 6.0 | 7.0 | 0.00 | 0.00 | 0.00 | 33 | 1007.5 |
| 20260503210630 | 56 | 268 | 2.0 | 3.0 | 0.00 | 0.00 | 0.00 | 35 | 1007.0 |
| 20260503210126 | 56 | 221 | 2.0 | 3.0 | 0.00 | 0.00 | 0.00 | 35 | 1007.3 |
| 20260503205622 | 56 | 249 | 4.0 | 6.0 | 0.00 | 0.00 | 0.00 | 35 | 1007.2 |
| 20260503205119 | 56 | 199 | 2.0 | 3.0 | 0.00 | 0.00 | 0.00 | 35 | 1007.2 |
| 20260503204616 | 55 | 183 | 4.0 | 4.0 | 0.00 | 0.00 | 0.00 | 34 | 1007.3 |
| 20260503204113 | 57 | 216 | 7.0 | 9.0 | 0.00 | 0.00 | 0.00 | 34 | 1007.4 |
| 20260503203610 | 56 | 241 | 3.0 | 6.0 | 0.00 | 0.00 | 0.00 | 35 | 1007.2 |
| 20260503203107 | 58 | 239 | 4.0 | 6.0 | 0.00 | 0.00 | 0.00 | 34 | 1007.0 |
| 20260503202605 | 57 | 261 | 5.0 | 6.0 | 0.00 | 0.00 | 0.00 | 34 | 1007.2 |
| 20260503202103 | 57 | 61 | 4.0 | 4.0 | 0.00 | 0.00 | 0.00 | 33 | 1007.4 |
| 20260503201600 | 57 | 212 | 4.0 | 6.0 | 0.00 | 0.00 | 0.00 | 34 | 1007.5 |
| 20260503201057 | 55 | 62 | 4.0 | 7.0 | 0.00 | 0.00 | 0.00 | 34 | 1007.9 |
| 20260503200548 | 55 | 278 | 2.0 | 4.0 | 0.00 | 0.00 | 0.00 | 37 | 1007.5 |
| 20260503200044 | 56 | 313 | 6.0 | 8.0 | 0.00 | 0.00 | 0.00 | 33 | 1007.6 |
| 20260503195542 | 57 | 239 | 9.0 | 10.0 | 0.00 | 0.00 | 0.00 | 32 | 1007.5 |
| 20260503195038 | 57 | 277 | 4.0 | 7.0 | 0.00 | 0.00 | 0.00 | 35 | 1007.5 |
| 20260503194536 | 56 | 188 | 8.0 | 10.0 | 0.00 | 0.00 | 0.00 | 35 | 1007.6 |
| 20260503194035 | 56 | 239 | 2.0 | 3.0 | 0.00 | 0.00 | 0.00 | 36 | 1007.9 |
| 20260503193532 | 57 | 260 | 4.0 | 4.0 | 0.00 | 0.00 | 0.00 | 32 | 1007.6 |
| 20260503193027 | 56 | 204 | 9.0 | 15.0 | 0.00 | 0.00 | 0.00 | 34 | 1007.7 |
| 20260503192524 | 55 | 174 | 3.0 | 4.0 | 0.00 | 0.00 | 0.00 | 34 | 1007.8 |
| 20260503192020 | 55 | 211 | 5.0 | 8.0 | 0.00 | 0.00 | 0.00 | 35 | 1007.9 |
| 20260503191517 | 52 | 58 | 2.0 | 2.0 | 0.00 | 0.00 | 0.00 | 39 | 1007.8 |
| 20260503191014 | 54 | 212 | 4.0 | 4.0 | 0.00 | 0.00 | 0.00 | 38 | 1008.2 |
| 20260503190511 | 55 | 250 | 4.0 | 6.0 | 0.00 | 0.00 | 0.00 | 34 | 1008.1 |
| 20260503190008 | 55 | 233 | 9.0 | 13.0 | 0.00 | 0.00 | 0.00 | 33 | 1007.9 |
| 20260503185503 | 55 | 276 | 3.0 | 4.0 | 0.00 | 0.00 | 0.00 | 36 | 1008.1 |
| 20260503184958 | 54 | 269 | 4.0 | 6.0 | 0.00 | 0.00 | 0.00 | 35 | 1008.1 |
| 20260503184454 | 56 | 235 | 5.0 | 8.0 | 0.00 | 0.00 | 0.00 | 33 | 1008.2 |
| 20260503183951 | 55 | 15 | 4.0 | 6.0 | 0.00 | 0.00 | 0.00 | 37 | 1008.1 |
| 20260503183448 | 54 | 266 | 5.0 | 8.0 | 0.00 | 0.00 | 0.00 | 34 | 1008.3 |
| 20260503182944 | 53 | 223 | 5.0 | 7.0 | 0.00 | 0.00 | 0.00 | 37 | 1007.9 |
| 20260503182443 | 53 | 214 | 1.0 | 2.0 | 0.00 | 0.00 | 0.00 | 35 | 1008.1 |
| 20260503181940 | 53 | 211 | 1.0 | 2.0 | 0.00 | 0.00 | 0.00 | 38 | 1008.5 |
| 20260503181437 | 53 | 61 | 3.0 | 4.0 | 0.00 | 0.00 | 0.00 | 37 | 1008.5 |
| 20260503180933 | 52 | 192 | 1.0 | 1.0 | 0.00 | 0.00 | 0.00 | 42 | 1008.5 |
| 20260503180432 | 52 | 47 | 2.0 | 3.0 | 0.00 | 0.00 | 0.00 | 36 | 1008.4 |
| 20260503175928 | 51 | 210 | 8.0 | 9.0 | 0.00 | 0.00 | 0.00 | 37 | 1008.6 |
| 20260503175426 | 50 | 226 | 5.0 | 6.0 | 0.00 | 0.00 | 0.00 | 40 | 1008.5 |
| 20260503174922 | 52 | 243 | 3.0 | 3.0 | 0.00 | 0.00 | 0.00 | 41 | 1008.5 |
| 20260503174420 | 54 | 199 | 1.0 | 1.0 | 0.00 | 0.00 | 0.00 | 37 | 1008.5 |
| 20260503173914 | 52 | 126 | 1.0 | 2.0 | 0.00 | 0.00 | 0.00 | 46 | 1008.5 |
| 20260503173411 | 49 | 318 | 1.0 | 2.0 | 0.00 | 0.00 | 0.00 | 39 | 1008.5 |
| 20260503172908 | 50 | 242 | 3.0 | 4.0 | 0.00 | 0.00 | 0.00 | 40 | 1008.9 |
| 20260503172406 | 51 | 327 | 4.0 | 6.0 | 0.00 | 0.00 | 0.00 | 39 | 1008.8 |
| 20260503171901 | 50 | 234 | 4.0 | 6.0 | 0.00 | 0.00 | 0.00 | 42 | 1008.7 |
| 20260503171358 | 50 | 194 | 1.0 | 2.0 | 0.00 | 0.00 | 0.00 | 44 | 1008.6 |
| 20260503170856 | 49 | 53 | 2.0 | 2.0 | 0.00 | 0.00 | 0.00 | 46 | 1008.6 |
| 20260503170352 | 50 | 152 | 2.0 | 2.0 | 0.00 | 0.00 | 0.00 | 38 | 1008.9 |
| 20260503150744 | 48 | 183 | 1.0 | 2.0 | 0.00 | 0.00 | 0.00 | 50 | 1009.6 |
| 20260503150240 | 44 | 131 | 2.0 | 3.0 | 0.00 | 0.00 | 0.00 | 54 | 1009.6 |
| 20260503140205 | 45 | 60 | 2.0 | 2.0 | 0.00 | 0.00 | 0.00 | 62 | 1009.6 |
| 20260503131134 | 43 | 155 | 2.0 | 4.0 | 0.00 | 0.00 | 0.00 | 63 | 1009.9 |
| 20260503130632 | 42 | 73 | 1.0 | 2.0 | 0.00 | 0.00 | 0.00 | 66 | 1009.8 |
| 20260503130129 | 42 | 123 | 2.0 | 2.0 | 0.00 | 0.00 | 0.00 | 67 | 1009.7 |
| 20260503110522 | 37 | 207 | 2.0 | 2.0 | 0.00 | 0.00 | 0.00 | 81 | 1009.4 |
| 20260503090408 | 37 | 212 | 1.0 | 1.0 | 0.00 | 0.00 | 0.00 | 81 | 1008.8 |
| 20260503081335 | 37 | 200 | 1.0 | 1.0 | 0.00 | 0.00 | 0.00 | 77 | 1008.6 |
| 20260503080832 | 37 | 175 | 0.0 | 1.0 | 0.00 | 0.00 | 0.00 | 77 | 1008.6 |
| 20260503080329 | 37 | 175 | 1.0 | 1.0 | 0.00 | 0.00 | 0.00 | 77 | 1008.7 |
| 20260503072759 | 38 | 192 | 0.0 | 0.0 | 0.00 | 0.00 | 0.00 | 76 | 1008.5 |
| 20260503072256 | 38 | 191 | 0.0 | 1.0 | 0.00 | 0.00 | 0.00 | 74 | 1008.7 |
| 20260503071752 | 38 | 160 | 2.0 | 2.0 | 0.00 | 0.00 | 0.00 | 74 | 1008.6 |
| 20260503071250 | 38 | 191 | 1.0 | 1.0 | 0.00 | 0.00 | 0.00 | 74 | 1008.4 |
| 20260503070746 | 38 | 191 | 1.0 | 1.0 | 0.00 | 0.00 | 0.00 | 74 | 1008.6 |
| 20260503070244 | 38 | 200 | 2.0 | 2.0 | 0.00 | 0.00 | 0.00 | 72 | 1008.7 |
| 20260503060209 | 40 | 197 | 1.0 | 2.0 | 0.00 | 0.00 | 0.00 | 70 | 1008.9 |
| 20260503054656 | 40 | 189 | 2.0 | 2.0 | 0.00 | 0.00 | 0.00 | 68 | 1008.9 |
| 20260503054153 | 40 | 139 | 1.0 | 1.0 | 0.00 | 0.00 | 0.00 | 68 | 1009.0 |
| 20260503053651 | 40 | 169 | 1.0 | 1.0 | 0.00 | 0.00 | 0.00 | 68 | 1008.9 |
| 20260503053149 | 40 | 249 | 1.0 | 2.0 | 0.00 | 0.00 | 0.00 | 68 | 1009.1 |
| 20260503052645 | 40 | 189 | 2.0 | 2.0 | 0.00 | 0.00 | 0.00 | 68 | 1009.0 |
| 20260503052142 | 41 | 188 | 0.0 | 0.0 | 0.00 | 0.00 | 0.00 | 68 | 1008.9 |
| 20260503051637 | 41 | 189 | 2.0 | 3.0 | 0.00 | 0.00 | 0.00 | 67 | 1009.1 |
| 20260503051135 | 41 | 188 | 1.0 | 1.0 | 0.00 | 0.00 | 0.00 | 67 | 1009.2 |
| 20260503050632 | 41 | 183 | 1.0 | 1.0 | 0.00 | 0.00 | 0.00 | 65 | 1009.3 |
| 20260503050128 | 41 | 193 | 1.0 | 1.0 | 0.00 | 0.00 | 0.00 | 66 | 1009.1 |
| 20260503045626 | 41 | 168 | 1.0 | 2.0 | 0.00 | 0.00 | 0.00 | 67 | 1009.3 |
| 20260503045123 | 41 | 185 | 1.0 | 1.0 | 0.00 | 0.00 | 0.00 | 65 | 1009.4 |
| 20260503044619 | 41 | 152 | 0.0 | 1.0 | 0.00 | 0.00 | 0.00 | 65 | 1009.3 |
| 20260503044117 | 41 | 139 | 0.0 | 0.0 | 0.00 | 0.00 | 0.00 | 65 | 1009.4 |
| 20260503043613 | 41 | 170 | 1.0 | 1.0 | 0.00 | 0.00 | 0.00 | 66 | 1009.4 |
| 20260503043110 | 41 | 125 | 1.0 | 1.0 | 0.00 | 0.00 | 0.00 | 66 | 1009.4 |